• In Netherlands
  • List of Countries
  • For 7 days
  • Water Temperature
  • Satellite Maps
  • Weather Map
  • Weather Widgets
  • user-avatar
    Login

    Hourly Weather Mahilyow

    Today, 24 July, Monday

    Time Temperature Precipitation Wind Pressure Humidity
    00:00 +16°C° 0 mm 2 mps 748 mmHg 72%
    01:00 +16°C° 0 mm 2 mps 747 mmHg 76%
    02:00 +15°C° 0 mm 2 mps 747 mmHg 79%
    03:00 +15°C° 0 mm 2 mps 747 mmHg 80%
    04:00 +15°C° 0 mm 2 mps 747 mmHg 80%
    05:00 +16°C° 0 mm 2 mps 747 mmHg 80%
    06:00 +17°C° 0 mm 2 mps 746 mmHg 76%
    07:00 +18°C° 0 mm 2 mps 746 mmHg 73%
    08:00 +20°C° 0 mm 3 mps 746 mmHg 69%
    09:00 +21°C° 0.1 mm 3 mps 746 mmHg 69%
    10:00 +21°C° 0.1 mm 3 mps 746 mmHg 69%
    11:00 +22°C° 0.1 mm 3 mps 745 mmHg 69%
    12:00 +21°C° 1.1 mm 3 mps 745 mmHg 74%
    13:00 +20°C° 1.1 mm 3 mps 745 mmHg 80%
    14:00 +20°C° 0 mm 2 mps 745 mmHg 83%
    15:00 +20°C° 0.1 mm 2 mps 745 mmHg 82%
    16:00 +20°C° 0.1 mm 2 mps 744 mmHg 81%
    17:00 +20°C° 0.1 mm 2 mps 744 mmHg 80%
    18:00 +19°C° 0 mm 2 mps 744 mmHg 81%
    19:00 +19°C° 0 mm 3 mps 744 mmHg 83%
    20:00 +18°C° 0 mm 3 mps 744 mmHg 84%
    21:00 +18°C° 0 mm 3 mps 743 mmHg 85%
    22:00 +18°C° 0 mm 3 mps 743 mmHg 86%
    23:00 +17°C° 0 mm 3 mps 743 mmHg 87%

    Tomorrow, 25 July, Tuesday

    Time Temperature Precipitation Wind Pressure Humidity
    00:00 +17°C° 0 mm 3 mps 743 mmHg 87%
    01:00 +17°C° 0 mm 3 mps 742 mmHg 88%
    02:00 +16°C° 0 mm 3 mps 742 mmHg 89%
    03:00 +16°C° 0 mm 3 mps 742 mmHg 88%
    04:00 +16°C° 0 mm 3 mps 742 mmHg 88%
    05:00 +16°C° 0 mm 3 mps 742 mmHg 88%
    06:00 +18°C° 0 mm 3 mps 742 mmHg 83%
    07:00 +19°C° 0 mm 3 mps 742 mmHg 78%
    08:00 +21°C° 0 mm 4 mps 741 mmHg 74%
    09:00 +22°C° 0 mm 4 mps 741 mmHg 69%
    10:00 +25°C° 0 mm 4 mps 741 mmHg 65%
    11:00 +26°C° 0 mm 4 mps 741 mmHg 60%
    12:00 +27°C° 0 mm 4 mps 741 mmHg 59%
    13:00 +28°C° 0 mm 5 mps 741 mmHg 58%
    14:00 +28°C° 0 mm 5 mps 740 mmHg 56%
    15:00 +28°C° 0.5 mm 5 mps 740 mmHg 60%
    16:00 +28°C° 0.5 mm 4 mps 740 mmHg 64%
    17:00 +27°C° 0.5 mm 4 mps 740 mmHg 67%
    18:00 +26°C° 2.3 mm 4 mps 740 mmHg 73%
    19:00 +24°C° 2.3 mm 3 mps 739 mmHg 79%
    20:00 +22°C° 2.3 mm 3 mps 739 mmHg 85%
    21:00 +21°C° 3.4 mm 3 mps 739 mmHg 88%
    22:00 +21°C° 3.4 mm 3 mps 739 mmHg 90%
    23:00 +20°C° 3.4 mm 3 mps 739 mmHg 93%

    Day after tomorrow, 26 July, Wednesday

    Time Temperature Precipitation Wind Pressure Humidity
    00:00 +20°C° 1.1 mm 3 mps 739 mmHg 93%
    01:00 +19°C° 1.1 mm 3 mps 739 mmHg 94%
    02:00 +19°C° 1.1 mm 3 mps 739 mmHg 94%
    03:00 +19°C° 0.3 mm 3 mps 739 mmHg 94%
    04:00 +18°C° 0.3 mm 3 mps 738 mmHg 93%
    05:00 +18°C° 0.3 mm 3 mps 738 mmHg 92%
    06:00 +19°C° 0 mm 4 mps 738 mmHg 88%
    07:00 +20°C° 0 mm 4 mps 738 mmHg 85%
    08:00 +21°C° 0 mm 5 mps 738 mmHg 81%
    09:00 +23°C° 0 mm 5 mps 738 mmHg 74%
    10:00 +26°C° 0 mm 5 mps 738 mmHg 68%
    11:00 +28°C° 0 mm 5 mps 738 mmHg 61%
    12:00 +29°C° 0.2 mm 5 mps 738 mmHg 60%
    13:00 +29°C° 0.2 mm 5 mps 738 mmHg 58%
    14:00 +30°C° 0.2 mm 5 mps 738 mmHg 57%
    15:00 +30°C° 1 mm 5 mps 737 mmHg 61%
    16:00 +29°C° 1 mm 4 mps 737 mmHg 66%
    17:00 +28°C° 1 mm 3 mps 737 mmHg 70%
    18:00 +27°C° 0.7 mm 3 mps 738 mmHg 76%
    19:00 +25°C° 0.7 mm 2 mps 738 mmHg 81%
    20:00 +23°C° 0.7 mm 1 mps 738 mmHg 87%
    21:00 +22°C° 0 mm 1 mps 738 mmHg 90%
    22:00 +20°C° 0 mm 2 mps 739 mmHg 92%
    23:00 +20°C° 0 mm 2 mps 739 mmHg 94%

    27 July, Thursday

    Time Temperature Precipitation Wind Pressure Humidity
    00:00 +19°C° 0 mm 2 mps 739 mmHg 95%
    01:00 +19°C° 0 mm 2 mps 739 mmHg 96%
    02:00 +18°C° 0 mm 2 mps 739 mmHg 97%
    03:00 +18°C° 0 mm 2 mps 740 mmHg 97%
    04:00 +18°C° 0 mm 2 mps 740 mmHg 97%
    05:00 +17°C° 0 mm 2 mps 740 mmHg 97%
    06:00 +19°C° 0 mm 2 mps 740 mmHg 93%
    07:00 +20°C° 0 mm 2 mps 741 mmHg 89%
    08:00 +21°C° 0 mm 2 mps 741 mmHg 84%
    09:00 +24°C° 0 mm 2 mps 741 mmHg 76%
    10:00 +25°C° 0 mm 2 mps 741 mmHg 68%
    11:00 +26°C° 0 mm 2 mps 741 mmHg 60%
    12:00 +27°C° 0 mm 2 mps 741 mmHg 58%
    13:00 +27°C° 0 mm 2 mps 741 mmHg 55%
    14:00 +28°C° 0 mm 2 mps 741 mmHg 52%
    15:00 +28°C° 0 mm 2 mps 741 mmHg 53%
    16:00 +28°C° 0 mm 1 mps 741 mmHg 54%
    17:00 +28°C° 0 mm 1 mps 742 mmHg 55%
    18:00 +26°C° 0 mm 1 mps 742 mmHg 60%
    19:00 +24°C° 0 mm 1 mps 742 mmHg 66%
    20:00 +23°C° 0 mm 1 mps 742 mmHg 71%
    21:00 +22°C° 0 mm 1 mps 742 mmHg 74%
    22:00 +20°C° 0 mm 2 mps 742 mmHg 76%
    23:00 +19°C° 0 mm 2 mps 742 mmHg 79%

    28 July, Friday

    Time Temperature Precipitation Wind Pressure Humidity
    00:00 +19°C° 0.3 mm 2 mps 742 mmHg 82%
    01:00 +19°C° 0.3 mm 1 mps 742 mmHg 86%
    02:00 +19°C° 0.3 mm 1 mps 742 mmHg 89%
    03:00 +19°C° 0.1 mm 1 mps 742 mmHg 90%
    04:00 +18°C° 0.1 mm 2 mps 742 mmHg 91%
    05:00 +18°C° 0.1 mm 2 mps 741 mmHg 92%
    06:00 +19°C° 0.1 mm 2 mps 742 mmHg 89%
    07:00 +21°C° 0.1 mm 2 mps 742 mmHg 85%
    08:00 +23°C° 0.1 mm 2 mps 742 mmHg 82%
    09:00 +24°C° 0.5 mm 2 mps 742 mmHg 80%
    10:00 +25°C° 0.5 mm 2 mps 741 mmHg 78%
    11:00 +25°C° 0.5 mm 2 mps 741 mmHg 76%
    12:00 +26°C° 1.4 mm 1 mps 741 mmHg 74%
    13:00 +26°C° 1.4 mm 1 mps 741 mmHg 72%
    14:00 +27°C° 1.4 mm 1 mps 741 mmHg 70%
    15:00 +26°C° 1.8 mm 1 mps 741 mmHg 73%
    16:00 +26°C° 1.8 mm 1 mps 740 mmHg 77%
    17:00 +25°C° 1.8 mm 1 mps 740 mmHg 81%
    18:00 +24°C° 0.1 mm 1 mps 740 mmHg 84%
    19:00 +23°C° 0.1 mm 1 mps 740 mmHg 87%
    20:00 +21°C° 0.1 mm 2 mps 740 mmHg 90%
    21:00 +21°C° 0.6 mm 2 mps 740 mmHg 91%
    22:00 +20°C° 0.6 mm 2 mps 740 mmHg 93%
    23:00 +20°C° 0.6 mm 2 mps 740 mmHg 94%

    29 July, Saturday

    Time Temperature Precipitation Wind Pressure Humidity
    00:00 +20°C° 0.9 mm 2 mps 740 mmHg 95%
    01:00 +19°C° 0.9 mm 2 mps 740 mmHg 95%
    02:00 +19°C° 0.9 mm 2 mps 740 mmHg 96%
    03:00 +19°C° 0.1 mm 2 mps 740 mmHg 96%
    04:00 +18°C° 0.1 mm 2 mps 740 mmHg 96%
    05:00 +18°C° 0.1 mm 2 mps 740 mmHg 97%
    06:00 +19°C° 0 mm 3 mps 740 mmHg 95%
    07:00 +19°C° 0 mm 3 mps 740 mmHg 93%
    08:00 +20°C° 0 mm 3 mps 740 mmHg 91%
    09:00 +20°C° 0.3 mm 4 mps 741 mmHg 90%
    10:00 +21°C° 0.3 mm 4 mps 741 mmHg 88%
    11:00 +21°C° 0.3 mm 4 mps 741 mmHg 87%
    12:00 +21°C° 0.4 mm 5 mps 741 mmHg 86%
    13:00 +22°C° 0.4 mm 5 mps 741 mmHg 86%
    14:00 +22°C° 0.4 mm 6 mps 742 mmHg 86%
    15:00 +21°C° 0.5 mm 5 mps 742 mmHg 86%
    16:00 +21°C° 0.5 mm 5 mps 742 mmHg 87%
    17:00 +21°C° 0.5 mm 5 mps 742 mmHg 88%
    18:00 +20°C° 0.4 mm 5 mps 742 mmHg 88%
    19:00 +20°C° 0.4 mm 6 mps 742 mmHg 88%
    20:00 +19°C° 0.4 mm 6 mps 743 mmHg 89%
    21:00 +19°C° 0 mm 6 mps 743 mmHg 88%
    22:00 +19°C° 0 mm 6 mps 743 mmHg 88%
    23:00 +17°C° 0 mm 6 mps 743 mmHg 87%
    Show more